Home   Weather   Duluth   Past weeks

Flag for USA Past Weather in Duluth, Minnesota, USA — Yesterday and Last 2 Weeks

Now
28 °F

Overcast.


Feels Like: 20 °F
Forecast: 25 / 33 °F
Wind: 9 mph from Northwest

Location: Sky Harbor Airport

Current Time: Apr 27, 2017 at 10:00:53 am

Latest Report: Apr 27, 2017 at 9:13 am


Visibility: 10 mi

Pressure: 29.54 "Hg

Humidity: 80%

Dew Point: 23 °F

Location of DuluthLocation

Past Weather in Duluth — Graph

°F

Duluth Temperature Yesterday

Maximum temperature yesterday: 37 °F (at 12:14 am)
Minimum temperature yesterday: 30 °F (at 9:53 pm)
Average temperature yesterday: 34 °F

High & Low Weather Summary for the Past Weeks

 TemperatureHumidityPressure
High68 °F (Apr 22, 3:33 pm)100% (Apr 15, 10:54 pm)30.40 "Hg (Apr 15, 10:54 pm)
Low28 °F (Apr 27, 12:34 am)28% (Apr 22, 1:14 pm)29.55 "Hg (Apr 27, 7:34 am)
Average40 °F85%29.99 "Hg
* Reported Apr 12 8:14 am — Apr 27 8:34 am, Duluth, Weather by CustomWeather, © 2017

Note: Actual official high and low records may vary slightly from our data, if they occured in-between our weather recording intervals... More about our weather records

Advertising

Duluth Weather History for the Previous 24 Hours

Scroll right to see more
 ConditionsComfort  
Time TempWeatherWind HumidityBarometerVisibility
8:34 am
Thu, Apr 27
28 °FOvercast.8 mph80%29.55 "Hg10 mi
7:53 am28 °FOvercast.13 mph80%29.55 "Hg10 mi
7:34 am28 °FOvercast.13 mph80%29.55 "Hg10 mi
7:14 am28 °FOvercast.8 mph86%29.56 "Hg10 mi
6:53 am28 °FOvercast.12 mph80%29.56 "Hg10 mi
6:34 am28 °FOvercast.17 mph80%29.56 "Hg10 mi
6:14 am28 °FOvercast.14 mph80%29.57 "Hg10 mi
5:53 am28 °FOvercast.10 mph86%29.57 "Hg10 mi
5:34 am28 °FOvercast.12 mph86%29.58 "Hg10 mi
5:14 am28 °FOvercast.13 mph86%29.59 "Hg10 mi
4:53 am28 °FOvercast.12 mph86%29.58 "Hg10 mi
4:34 am28 °FOvercast.8 mph86%29.59 "Hg7 mi
4:14 am28 °FIce fog.9 mph86%29.58 "Hg5 mi
3:53 am28 °FOvercast.9 mph86%29.58 "Hg7 mi
3:34 am28 °FOvercast.9 mph93%29.59 "Hg7 mi
3:14 am28 °FOvercast.8 mph86%29.60 "Hg7 mi
2:53 am28 °FOvercast.12 mph86%29.59 "Hg10 mi
2:34 am28 °FOvercast.12 mph86%29.59 "Hg10 mi
2:14 am28 °FOvercast.10 mph86%29.61 "Hg10 mi
1:53 am28 °FOvercast.9 mph86%29.62 "Hg10 mi
1:34 am28 °FOvercast.9 mph93%29.62 "Hg10 mi
12:53 am28 °FOvercast.9 mph86%29.63 "Hg10 mi
12:34 am28 °FOvercast.8 mph86%29.64 "Hg10 mi
12:13 am30 °FOvercast.9 mph86%29.63 "Hg10 mi
11:53 pm
Wed, Apr 26
30 °FOvercast.12 mph86%29.62 "Hg10 mi
11:34 pm30 °FOvercast.12 mph86%29.62 "Hg10 mi
11:13 pm30 °FOvercast.13 mph86%29.62 "Hg10 mi
10:53 pm30 °FOvercast.13 mph86%29.63 "Hg10 mi
10:34 pm30 °FOvercast.12 mph86%29.64 "Hg10 mi
9:53 pm30 °FOvercast.15 mph93%29.65 "Hg10 mi
9:34 pm32 °FOvercast.14 mph87%29.65 "Hg10 mi
9:14 pm32 °FOvercast.16 mph93%29.63 "Hg10 mi
8:34 pm32 °FMostly cloudy.16 mph93%29.63 "Hg10 mi
8:14 pm32 °FOvercast.18 mph93%29.63 "Hg10 mi
7:54 pm32 °FOvercast.16 mph93%29.61 "Hg10 mi
7:34 pm34 °FOvercast.16 mph93%29.61 "Hg10 mi
7:13 pm34 °FOvercast.17 mph93%29.62 "Hg10 mi
6:54 pm34 °FMore clouds than sun.16 mph93%29.60 "Hg10 mi
6:33 pm34 °FCloudy.15 mph100%29.59 "Hg10 mi
6:14 pm34 °FLight rain. Cloudy.14 mph100%29.59 "Hg7 mi
5:54 pm34 °FLight rain. Cloudy.14 mph100%29.59 "Hg7 mi
5:33 pm36 °FLight rain. Cloudy.13 mph93%29.59 "Hg10 mi
5:14 pm36 °FCloudy.9 mph93%29.61 "Hg10 mi
4:54 pm36 °FRain. Cloudy.9 mph93%29.60 "Hg5 mi
4:33 pm36 °FMore clouds than sun.9 mph93%29.59 "Hg10 mi
4:14 pm34 °FLight rain. Cloudy.14 mph100%29.59 "Hg4 mi
3:54 pm36 °FLight rain. Cloudy.10 mph93%29.58 "Hg7 mi
3:34 pm36 °FCloudy.14 mph93%29.57 "Hg10 mi
2:54 pm36 °FLight rain. Cloudy.15 mph93%29.60 "Hg10 mi
2:33 pm36 °FMostly cloudy.13 mph93%29.59 "Hg10 mi
2:14 pm36 °FDrizzle. Mostly cloudy.16 mph93%29.58 "Hg10 mi
1:54 pm36 °FLight rain. Mostly cloudy.18 mph93%29.57 "Hg10 mi
1:34 pm36 °FLight rain. Cloudy.23 mph93%29.58 "Hg7 mi
12:54 pm34 °FLight rain. Cloudy.22 mph100%29.58 "Hg5 mi
12:34 pm34 °FLight rain. More clouds than sun.24 mph100%29.59 "Hg5 mi
12:14 pm34 °FLight rain. Mostly cloudy.22 mph100%29.59 "Hg4 mi
11:54 am34 °FLight rain. Mostly cloudy.26 mph100%29.59 "Hg4 mi
11:34 am34 °FLight rain. More clouds than sun.25 mph93%29.60 "Hg4 mi
11:14 am34 °FLight rain. More clouds than sun.25 mph100%29.60 "Hg5 mi
10:54 am34 °FLight rain. More clouds than sun.26 mph93%29.60 "Hg5 mi
10:34 am34 °FLight rain. Overcast.32 mph100%29.59 "Hg4 mi
10:14 am34 °FLight rain. Mostly cloudy.26 mph100%29.60 "Hg4 mi
Weather by CustomWeather, © 2017

See weather overviewHow to use our weather pages